WESTFORD NEEDLES, 629

Orbit data source: Space-Track

WESTFORD NEEDLES, 629 is space debris in LEO originally from a launch on Thu, 09 May 1963 UTC via an ATLAS AGENA B launch vehicle from the Air Force Western Test Range (AFWTR). Debris objects in space refer to the collection of defunct objects orbiting the Earth. Examples of debris include non-operational satellites, rocket bodies, and fragments generated from explosions, collisions, or faulty payload assembly.

Loading next visibility...
Identifier
629, 1963-014G
Orbit
LEO
Country
Flag of USUS
Related business
Manufacturer
MIT-LL
Mission
Spacecraft
Bus & Motor
Unknown
Mass
8 kg wet, 8 kg dry
Launch date (UTC)
1963-05-09 (63 years ago)
Launch vehicle
ATLAS AGENA B
Launch site
Air Force Western Test Range (AFWTR)
Object type
Payload
Rocket body
Debris
Shape & HBR
Unknown shape, 1.1 m
Radar Cross Section
Large (>1 m²)

Expand to show TLE details & history
Last TLE update: 2 days ago

TLE from 2 days ago
0 WESTFORD NEEDLES
1 00629U 63014G   25346.05400982  .00000005  00000-0  10209-2 0  9998
2 00629  87.3448 209.0879 0050442 188.7685 171.2292  8.65564409978001
Epoch: 2025-12-12T01:17Z
TLE epoch observation values (Epoch: 2025-12-12T01:17:46.448Z)
Latitude
0.00002°
Longitude
108.64322°
Altitude
3,694.041 km
Speed
6.276 km/s
True Right ascension
13h 56m 21s
True Declination
0° 00' 00"
Sunlit
Object was in daylight at epoch
Visualization orbit readout
Latitude
Unknown
Longitude
Unknown
Altitude
Unknown
Speed
Unknown
Apparent Right ascension
Unknown
Apparent Declination
Unknown
Sunlit
N/A
Visualization observer readout
Local Sidereal Time
20:29:19
Azimuth
Unknown
Elevation
Unknown
Doppler factor
Unknown
Orbital elements
Apogee altitude
3,690.245 km
Perigee altitude
3,589.181 km
Semi-major axis
10,017.85 km
Eccentricity
0.00504
Inclination
87.3448°
RAAN
209.0879°
Arg. of periapsis
188.7685°
True anomaly
171.31679°
Mean anomaly
171.2292°
Eccentric anomaly
171.27305°
Mean motion
2.16462 °/min
Orbital period
166.31 mins
BSTAR
0.0010209
Loading maneuver chart data...
Computing Atmospheric mass density...

Documentation

Showing up to 5 results
|